Tracking 29933 objects as of 2-Dec-2024
HD Live streaming from Space Station
objects crossing your sky now

STRV 1A

Track STRV 1A now!
10-day predictions
STRV 1A is classified as:


NORAD ID: 23125
Int'l Code: 1994-034B
Perigee: 254.1 km
Apogee: 24,615.8 km
Inclination: 7.4 °
Period: 427.8 minutes
Semi major axis: 18805 km
RCS: 0.2699 m2 (medium)
Launch date: June 17, 1994
Source: United Kingdom (UK)
Launch site: FRENCH GUIANA (FRGUI)
Your satellite tracking list
Your tracking list is empty




NASA's NSSDC Master Catalog

Two Line Element Set (TLE):
1 23125U 94034B   24336.65927429  .00008829  00000-0  12528-2 0  9992
2 23125   7.4416 262.5330 6477132 201.2602 110.2986  3.36636013315020
Source of the keplerian elements: AFSPC